RTD1 KSGF-KSGF

Flight info

Callsign RTD1
Flight time 0h 36m
Altitude 16000
Route SGF LUNNS
Aircraft E75L/M-VGDW/C

Departure

Time 2026-05-01 14:48
Airport Springfield Branson National Airport (KSGF)

Arrival

Time 2026-05-01 15:24
Airport Springfield Branson National Airport (KSGF)
Time Latitude Longitude Altitude Speed Heading
2026-05-01 14:33 37.25183 -93.38364 1271 ft 0 kts 292°
2026-05-01 14:36 37.25205 -93.38370 1271 ft 7 kts 18°
2026-05-01 14:36 37.25212 -93.38363 1271 ft 0 kts 40°
2026-05-01 14:42 37.25215 -93.38359 1271 ft 2 kts 50°
2026-05-01 14:42 37.25211 -93.38316 1270 ft 9 kts 120°
2026-05-01 14:42 37.25130 -93.38292 1270 ft 16 kts 199°
2026-05-01 14:42 37.25010 -93.38351 1270 ft 22 kts 201°
2026-05-01 14:43 37.24853 -93.38429 1271 ft 26 kts 201°
2026-05-01 14:43 37.24669 -93.38520 1270 ft 31 kts 201°
2026-05-01 14:43 37.24484 -93.38614 1273 ft 26 kts 201°
2026-05-01 14:43 37.24390 -93.38712 1273 ft 9 kts 294°
2026-05-01 14:44 37.24456 -93.38781 1273 ft 18 kts 322°
2026-05-01 14:44 37.24739 -93.39059 1269 ft 27 kts 322°
2026-05-01 14:44 37.24867 -93.39186 1270 ft 20 kts 322°
2026-05-01 14:45 37.24960 -93.39277 1272 ft 16 kts 322°
2026-05-01 14:45 37.25176 -93.39489 1271 ft 26 kts 322°
2026-05-01 14:45 37.25321 -93.39630 1268 ft 25 kts 322°
2026-05-01 14:46 37.25448 -93.39754 1269 ft 22 kts 322°
2026-05-01 14:46 37.25572 -93.39960 1267 ft 13 kts 231°
2026-05-01 14:46 37.25503 -93.40024 1271 ft 12 kts 177°
2026-05-01 14:47 37.25484 -93.40011 1267 ft 0 kts 140°
2026-05-01 14:47 37.25229 -93.39758 1274 ft 89 kts 142°
2026-05-01 14:48 37.23793 -93.38327 2021 ft 157 kts 139°
2026-05-01 14:48 37.22948 -93.37468 2893 ft 156 kts 138°
2026-05-01 14:48 37.21219 -93.35743 4600 ft 162 kts 139°
2026-05-01 14:49 37.19145 -93.33717 4996 ft 221 kts 140°
2026-05-01 14:49 37.16513 -93.31139 5005 ft 255 kts 140°
2026-05-01 14:50 37.14887 -93.28981 4994 ft 258 kts 112°
2026-05-01 14:50 37.16233 -93.23965 4998 ft 246 kts 25°
2026-05-01 14:51 37.17889 -93.23636 4995 ft 245 kts 352°
2026-05-01 14:51 37.20940 -93.25356 5000 ft 242 kts 338°
2026-05-01 14:52 37.24086 -93.26971 5004 ft 245 kts 338°
2026-05-01 14:52 37.25653 -93.27826 5005 ft 246 kts 337°
2026-05-01 14:52 37.28779 -93.29565 5000 ft 246 kts 337°
2026-05-01 14:53 37.30349 -93.30441 4999 ft 247 kts 337°
2026-05-01 14:53 37.31921 -93.31315 4993 ft 247 kts 337°
2026-05-01 14:53 37.33479 -93.32180 4989 ft 246 kts 337°
2026-05-01 14:53 37.34947 -93.33251 5006 ft 247 kts 317°
2026-05-01 14:54 37.35804 -93.35124 5041 ft 250 kts 293°
2026-05-01 14:54 37.36242 -93.37247 5058 ft 252 kts 284°
2026-05-01 14:54 37.36514 -93.39435 5045 ft 254 kts 281°
2026-05-01 14:54 37.36746 -93.41632 5070 ft 254 kts 281°
2026-05-01 14:55 37.36992 -93.43826 5122 ft 254 kts 282°
2026-05-01 14:55 37.37280 -93.46019 5135 ft 255 kts 283°
2026-05-01 14:55 37.37576 -93.48214 5156 ft 255 kts 283°
2026-05-01 14:55 37.37872 -93.50421 5052 ft 257 kts 282°
2026-05-01 14:56 37.38143 -93.52441 4688 ft 214 kts 283°
2026-05-01 14:56 37.38302 -93.54198 4276 ft 203 kts 276°
2026-05-01 14:56 37.38351 -93.55997 4024 ft 205 kts 274°
2026-05-01 14:56 37.38399 -93.57795 3884 ft 206 kts 275°
2026-05-01 14:57 37.38525 -93.59568 3737 ft 198 kts 287°
2026-05-01 14:57 37.40519 -93.61125 3575 ft 182 kts 16°
2026-05-01 14:57 37.41486 -93.60166 3516 ft 184 kts 60°
2026-05-01 14:58 37.41657 -93.58595 3425 ft 183 kts 93°
2026-05-01 14:58 37.41495 -93.57003 3354 ft 183 kts 96°
2026-05-01 14:58 37.41233 -93.55452 3362 ft 180 kts 110°
2026-05-01 14:58 37.40396 -93.54277 3299 ft 185 kts 139°
2026-05-01 14:59 37.39380 -93.53295 3286 ft 189 kts 141°
2026-05-01 14:59 37.38288 -93.52291 3088 ft 201 kts 141°
2026-05-01 14:59 37.37158 -93.51238 3000 ft 204 kts 141°
2026-05-01 14:59 37.36016 -93.50176 2949 ft 204 kts 141°
2026-05-01 15:00 37.33744 -93.48106 2914 ft 200 kts 142°
2026-05-01 15:00 37.32622 -93.47077 2912 ft 199 kts 141°
2026-05-01 15:00 37.31532 -93.46004 2849 ft 201 kts 139°
2026-05-01 15:01 37.30490 -93.44957 2567 ft 178 kts 139°
2026-05-01 15:01 37.29587 -93.44081 2347 ft 154 kts 137°
2026-05-01 15:01 37.28824 -93.43298 2143 ft 134 kts 138°
2026-05-01 15:01 37.28128 -93.42590 1956 ft 126 kts 139°
2026-05-01 15:02 37.27441 -93.41911 1800 ft 126 kts 141°
2026-05-01 15:02 37.27205 -93.41688 1729 ft 125 kts 141°
2026-05-01 15:02 37.26074 -93.40606 1447 ft 122 kts 141°
2026-05-01 15:02 37.25398 -93.39929 1728 ft 131 kts 138°
2026-05-01 15:03 37.24653 -93.39104 2230 ft 158 kts 135°
2026-05-01 15:03 37.23768 -93.38088 2767 ft 183 kts 133°
2026-05-01 15:03 37.23233 -93.36641 3298 ft 190 kts 89°
2026-05-01 15:03 37.23694 -93.35120 3948 ft 192 kts 45°
2026-05-01 15:04 37.24876 -93.34416 4653 ft 192 kts
2026-05-01 15:04 37.25807 -93.34333 4508 ft 208 kts
2026-05-01 15:04 37.27173 -93.34283 4002 ft 185 kts
2026-05-01 15:04 37.28376 -93.34402 3460 ft 168 kts 340°
2026-05-01 15:05 37.29135 -93.35460 3029 ft 168 kts 287°
2026-05-01 15:05 37.28947 -93.36845 3011 ft 174 kts 236°
2026-05-01 15:05 37.27875 -93.37708 2943 ft 195 kts 190°
2026-05-01 15:05 37.26172 -93.37104 2965 ft 202 kts 135°
2026-05-01 15:06 37.25652 -93.36124 2994 ft 202 kts 107°
2026-05-01 15:06 37.25660 -93.34394 2966 ft 203 kts 68°
2026-05-01 15:06 37.26579 -93.33092 2934 ft 202 kts 29°
2026-05-01 15:06 37.27847 -93.32346 2915 ft 202 kts 25°
2026-05-01 15:07 37.29128 -93.31600 2902 ft 204 kts 25°
2026-05-01 15:07 37.30405 -93.30878 2880 ft 199 kts 16°
2026-05-01 15:07 37.31715 -93.30996 3096 ft 188 kts 347°
2026-05-01 15:07 37.32914 -93.31561 3327 ft 183 kts 334°
2026-05-01 15:08 37.34040 -93.32340 3422 ft 187 kts 332°
2026-05-01 15:08 37.35067 -93.33342 3501 ft 194 kts 307°
2026-05-01 15:08 37.35384 -93.35011 3494 ft 203 kts 269°
2026-05-01 15:08 37.35427 -93.36764 3494 ft 203 kts 280°
2026-05-01 15:09 37.35659 -93.38543 3495 ft 209 kts 282°
2026-05-01 15:09 37.35902 -93.40360 3501 ft 213 kts 281°
2026-05-01 15:09 37.36106 -93.42208 3507 ft 214 kts 279°
2026-05-01 15:09 37.36276 -93.44069 3514 ft 214 kts 278°
2026-05-01 15:10 37.36445 -93.45930 3496 ft 215 kts 278°
2026-05-01 15:10 37.36784 -93.49655 3520 ft 215 kts 279°
2026-05-01 15:10 37.36952 -93.51525 3508 ft 215 kts 278°
2026-05-01 15:11 37.37108 -93.53386 3513 ft 212 kts 278°
2026-05-01 15:11 37.37411 -93.57012 3505 ft 206 kts 278°
2026-05-01 15:11 37.37568 -93.58793 3499 ft 204 kts 278°
2026-05-01 15:12 37.37727 -93.60563 3532 ft 204 kts 279°
2026-05-01 15:12 37.38071 -93.64130 3543 ft 206 kts 279°
2026-05-01 15:12 37.38246 -93.65924 3554 ft 207 kts 279°
2026-05-01 15:13 37.36734 -93.70253 3518 ft 205 kts 192°
2026-05-01 15:14 37.33938 -93.70715 3505 ft 203 kts 183°
2026-05-01 15:14 37.32526 -93.70818 3546 ft 204 kts 181°
2026-05-01 15:14 37.29707 -93.70436 3561 ft 206 kts 167°
2026-05-01 15:15 37.26910 -93.69599 3549 ft 207 kts 162°
2026-05-01 15:15 37.24232 -93.68373 3495 ft 207 kts 156°
2026-05-01 15:16 37.21604 -93.66872 3531 ft 206 kts 150°
2026-05-01 15:16 37.19159 -93.65036 3518 ft 205 kts 145°
2026-05-01 15:17 37.16835 -93.62976 3501 ft 207 kts 139°
2026-05-01 15:18 37.13692 -93.59352 3492 ft 203 kts 131°
2026-05-01 15:18 37.12765 -93.58035 3530 ft 203 kts 128°
2026-05-01 15:19 37.10210 -93.53749 3534 ft 205 kts 121°
2026-05-01 15:19 37.08986 -93.50584 3512 ft 201 kts 107°
2026-05-01 15:19 37.08506 -93.48946 3487 ft 199 kts 107°
2026-05-01 15:20 37.07913 -93.45684 3477 ft 188 kts 70°
2026-05-01 15:20 37.08728 -93.44485 3485 ft 184 kts 25°
2026-05-01 15:20 37.09945 -93.44128 3509 ft 180 kts 10°
2026-05-01 15:21 37.11193 -93.43846 3522 ft 185 kts 10°
2026-05-01 15:21 37.12470 -93.43552 3519 ft 188 kts 11°
2026-05-01 15:21 37.13778 -93.43221 3370 ft 198 kts 12°
2026-05-01 15:21 37.15160 -93.42852 3087 ft 205 kts 12°
2026-05-01 15:22 37.17474 -93.42045 2611 ft 152 kts 23°
2026-05-01 15:22 37.18402 -93.41543 2433 ft 137 kts 24°
2026-05-01 15:22 37.19224 -93.41086 2221 ft 121 kts 24°
2026-05-01 15:23 37.19998 -93.40688 2066 ft 125 kts 21°
2026-05-01 15:23 37.20788 -93.40299 1887 ft 120 kts 20°
2026-05-01 15:23 37.21562 -93.39924 1744 ft 120 kts 20°
2026-05-01 15:23 37.22338 -93.39530 1579 ft 120 kts 20°
2026-05-01 15:24 37.23112 -93.39146 1407 ft 120 kts 18°
2026-05-01 15:24 37.23857 -93.38777 1284 ft 108 kts 20°
2026-05-01 15:24 37.24364 -93.38525 1276 ft 37 kts 21°
2026-05-01 15:24 37.24472 -93.38479 1274 ft 12 kts 351°
2026-05-01 15:25 37.24510 -93.38549 1272 ft 10 kts 295°
2026-05-01 15:25 37.24561 -93.38573 1272 ft 8 kts 19°
2026-05-01 15:25 37.24672 -93.38517 1270 ft 17 kts 22°
2026-05-01 15:25 37.24767 -93.38471 1272 ft 12 kts 21°
2026-05-01 15:26 37.24869 -93.38422 1271 ft 26 kts 19°
2026-05-01 15:26 37.25055 -93.38360 1270 ft 25 kts 12°
2026-05-01 15:26 37.25203 -93.38336 1270 ft 18 kts 356°
2026-05-01 15:26 37.25248 -93.38391 1271 ft 3 kts 291°
2026-05-01 15:27 37.25248 -93.38392 1271 ft 0 kts 291°